GW1995 Weather Reports


time (UTC)temp
F
wind
direction
speed
knots
gust
knots
rain 1hr
in
rain 24hr
in
rain mn
in
humidity
%
barometer
mb
20240418181720 51 259 4.3 7.8 0.00 0.00 0.00 45 1015.9
20240418181219 51 224 4.3 11.3 0.00 0.00 0.00 46 1015.8
20240418180719 52 279 8.7 13.0 0.00 0.00 0.00 45 1015.8
20240418180218 51 236 1.7 5.2 0.00 0.00 0.00 45 1015.8
20240418175718 51 288 8.7 13.0 0.00 0.00 0.00 44 1015.9
20240418175216 51 252 6.1 7.8 0.00 0.00 0.00 46 1015.9
20240418174715 51 248 2.6 8.7 0.00 0.00 0.00 49 1015.9
20240418174215 51 214 3.5 7.0 0.00 0.00 0.00 49 1015.8
20240418173713 50 321 4.3 7.0 0.00 0.00 0.00 47 1015.7
20240418173213 50 235 4.3 11.3 0.00 0.00 0.00 48 1016.0
20240418172713 50 271 6.1 7.8 0.00 0.00 0.00 49 1015.9
20240418172212 50 287 7.0 7.8 0.00 0.00 0.00 50 1016.0
20240418171712 50 280 3.5 6.1 0.00 0.00 0.00 49 1016.0
20240418171213 50 278 2.6 5.2 0.00 0.00 0.00 50 1016.2
20240418170712 49 258 3.5 5.2 0.00 0.00 0.00 51 1016.1
20240418170212 49 260 4.3 7.0 0.00 0.00 0.00 49 1016.1
20240418165710 49 264 4.3 7.0 0.00 0.00 0.00 52 1016.1
20240418165210 48 281 4.3 7.8 0.00 0.00 0.00 52 1016.2
20240418164709 48 238 0.9 2.6 0.00 0.00 0.00 52 1016.3
20240418164207 48 267 1.7 6.1 0.00 0.00 0.00 52 1016.3
20240418163708 47 223 4.3 6.1 0.00 0.00 0.00 51 1016.3
20240418163206 47 279 4.3 7.8 0.00 0.00 0.00 50 1016.4
20240418162705 48 235 4.3 6.1 0.00 0.00 0.00 52 1016.5
20240418162205 47 239 4.3 7.0 0.00 0.00 0.00 54 1016.3
20240418161704 47 273 2.6 4.3 0.00 0.00 0.00 56 1016.4
20240418161203 47 278 5.2 6.1 0.00 0.00 0.00 55 1016.5
20240418160701 48 253 4.3 6.1 0.00 0.00 0.00 54 1016.5
20240418160200 48 246 7.0 8.7 0.00 0.00 0.00 54 1016.6
20240418155659 48 264 4.3 6.1 0.00 0.00 0.00 56 1016.6
20240418155158 48 280 4.3 5.2 0.00 0.00 0.00 56 1016.6
20240418154657 48 253 2.6 7.0 0.00 0.00 0.00 56 1016.5
20240418154156 48 193 3.5 5.2 0.00 0.00 0.00 55 1016.3
20240418153654 47 231 2.6 6.1 0.00 0.00 0.00 54 1016.3
20240418153153 48 209 2.6 7.0 0.00 0.00 0.00 54 1016.3
20240418152653 48 261 2.6 6.1 0.00 0.00 0.00 56 1016.2
20240418152151 47 239 2.6 4.3 0.00 0.00 0.00 58 1016.3
20240418151650 48 261 3.5 5.2 0.00 0.00 0.00 58 1016.2
20240418151148 48 233 3.5 7.8 0.00 0.00 0.00 58 1016.1
20240418150647 47 282 1.7 5.2 0.00 0.00 0.00 58 1016.0
20240418150145 47 265 2.6 4.3 0.00 0.00 0.00 58 1015.8
20240418145644 47 288 4.3 5.2 0.00 0.00 0.00 58 1016.0
20240418145142 47 203 3.5 4.3 0.00 0.00 0.00 57 1015.9
20240418144642 47 273 2.6 4.3 0.00 0.00 0.00 57 1015.9
20240418144141 47 274 1.7 2.6 0.00 0.00 0.00 56 1016.0
20240418143640 47 276 3.5 6.1 0.00 0.00 0.00 55 1016.0
20240418143138 47 290 1.7 4.3 0.00 0.00 0.00 56 1016.0
20240418142639 47 253 1.7 2.6 0.00 0.00 0.00 56 1016.0
20240418142137 47 273 0.9 4.3 0.00 0.00 0.00 56 1015.8
20240418141637 47 297 1.7 4.3 0.00 0.00 0.00 56 1015.9
20240418141136 47 267 3.5 5.2 0.00 0.00 0.00 58 1016.0
20240418140635 47 292 2.6 2.6 0.00 0.00 0.00 62 1016.0
20240418140133 47 1 4.3 7.8 0.00 0.00 0.00 63 1015.8
20240418135632 47 255 2.6 5.2 0.00 0.00 0.00 65 1015.7
20240418135131 47 307 2.6 5.2 0.00 0.00 0.00 66 1015.7
20240418134629 47 297 0.9 2.6 0.00 0.00 0.00 70 1015.9
20240418134129 47 239 1.7 4.3 0.00 0.00 0.00 76 1015.7
20240418133629 47 258 1.7 1.7 0.00 0.00 0.00 79 1015.8
20240418133127 47 262 2.6 6.1 0.00 0.00 0.00 81 1015.7
20240418132625 47 259 0.0 0.9 0.00 0.00 0.00 83 1015.6
20240418132122 46 242 0.0 1.7 0.00 0.00 0.00 84 1015.3
20240418131620 46 252 0.0 0.9 0.00 0.00 0.00 84 1015.4
20240418131119 46 232 0.9 1.7 0.00 0.00 0.00 85 1015.7
20240418130617 46 233 0.9 2.6 0.00 0.00 0.00 85 1015.9
20240418130117 46 267 2.6 4.3 0.00 0.00 0.00 86 1016.1
20240418125616 46 248 0.9 0.9 0.00 0.00 0.00 87 1015.7
20240418125114 46 240 0.0 0.9 0.00 0.00 0.00 87 1015.6
20240418124613 46 238 0.9 1.7 0.00 0.00 0.00 87 1015.6
20240418124111 46 244 0.9 1.7 0.00 0.00 0.00 88 1015.9
20240418123610 46 193 0.0 0.9 0.00 0.00 0.00 88 1015.9
20240418123108 46 218 0.9 1.7 0.00 0.00 0.00 89 1016.4
20240418122607 46 252 0.0 0.9 0.00 0.00 0.00 89 1016.4
20240418122105 45 235 0.9 1.7 0.00 0.00 0.00 90 1016.2
20240418121604 45 225 0.9 0.9 0.00 0.00 0.00 90 1015.6
20240418121102 45 214 0.9 1.7 0.00 0.00 0.00 90 1015.2
20240418120601 45 215 0.0 1.7 0.00 0.00 0.00 90 1015.1
20240418120100 45 236 0.9 0.9 0.00 0.00 0.00 91 1015.2
20240418115559 45 209 0.9 0.9 0.00 0.00 0.00 91 1015.1
20240418115058 45 219 0.0 2.6 0.00 0.00 0.00 91 1015.3
20240418114557 45 229 0.9 1.7 0.00 0.00 0.00 91 1015.3
20240418114057 45 206 0.9 0.9 0.00 0.00 0.00 91 1015.2
20240418113556 45 192 0.9 1.7 0.00 0.00 0.00 91 1015.0
20240418113054 45 202 0.9 0.9 0.00 0.00 0.00 90 1015.0
20240418112554 45 206 0.0 0.9 0.00 0.00 0.00 90 1014.9
20240418112053 45 206 0.9 0.9 0.00 0.00 0.00 89 1015.1
20240418111552 46 209 0.0 0.9 0.00 0.00 0.00 88 1015.1
20240418111050 46 209 0.0 0.9 0.00 0.00 0.00 88 1015.1
20240418110549 46 205 0.9 1.7 0.00 0.00 0.00 88 1015.4
20240418110049 45 221 0.9 1.7 0.00 0.00 0.00 88 1015.3
20240418105547 45 221 0.9 1.7 0.00 0.00 0.00 88 1015.2
20240418105045 45 231 0.9 0.9 0.00 0.00 0.00 88 1015.2
20240418104543 45 221 0.9 0.9 0.00 0.00 0.00 88 1015.1
20240418104041 45 219 1.7 1.7 0.00 0.00 0.00 88 1014.8
20240418103540 45 202 0.9 0.9 0.00 0.00 0.00 88 1014.7
20240418103038 45 214 0.0 0.9 0.00 0.00 0.00 88 1014.8
20240418102537 45 210 0.0 0.0 0.00 0.00 0.00 88 1014.7
20240418102037 45 210 0.9 0.9 0.00 0.00 0.00 88 1014.6
20240418101536 45 239 0.0 0.9 0.00 0.00 0.00 88 1014.7
20240418101035 45 233 0.0 0.9 0.00 0.00 0.00 89 1014.5
20240418100533 45 249 0.0 0.0 0.00 0.00 0.00 89 1014.9
20240418100031 45 353 0.9 0.9 0.00 0.00 0.00 89 1014.4
20240418095530 45 289 0.9 0.9 0.00 0.00 0.00 89 1014.7
20240418095029 45 221 0.9 1.7 0.00 0.00 0.00 90 1014.2
20240418094529 45 222 0.0 0.0 0.00 0.00 0.00 90 1014.1
20240418094028 44 232 0.0 1.7 0.00 0.00 0.00 90 1014.0
20240418093528 44 204 0.9 0.9 0.00 0.00 0.00 90 1013.8
20240418093026 44 218 0.9 1.7 0.00 0.00 0.00 90 1014.1
20240418092525 44 217 0.0 0.9 0.00 0.00 0.00 89 1013.9
20240418092023 44 226 1.7 1.7 0.00 0.00 0.00 89 1013.9
20240418091522 45 226 0.0 0.9 0.00 0.00 0.00 89 1014.0
20240418091023 45 228 0.0 0.0 0.00 0.00 0.00 89 1013.8
20240418090521 45 227 0.0 0.9 0.00 0.00 0.00 89 1013.5
20240418090021 45 225 0.9 0.9 0.00 0.00 0.00 88 1013.4
20240418085520 45 241 0.0 0.9 0.00 0.00 0.00 88 1013.4
20240418085020 45 246 0.0 0.9 0.00 0.00 0.00 87 1013.3
20240418084519 45 246 0.0 0.0 0.00 0.00 0.00 87 1013.7
20240418084018 45 247 0.0 0.0 0.00 0.00 0.00 86 1013.6
20240418083518 45 246 0.0 0.0 0.00 0.00 0.00 86 1013.7
20240418083016 45 246 0.0 0.9 0.00 0.00 0.00 86 1013.8
20240418082514 45 257 0.0 0.0 0.00 0.00 0.00 86 1014.0
20240418082014 45 256 0.0 0.0 0.00 0.00 0.00 87 1014.1
20240418081512 45 265 0.0 0.0 0.00 0.00 0.00 87 1014.1
20240418081011 45 242 0.0 1.7 0.00 0.00 0.00 87 1013.9
20240418080510 45 258 0.0 0.9 0.00 0.00 0.00 87 1014.1
20240418080010 45 270 0.0 0.9 0.00 0.00 0.00 87 1013.7
20240418075508 45 253 0.0 0.9 0.00 0.00 0.00 87 1013.8
20240418075008 45 252 0.0 0.9 0.00 0.00 0.00 88 1013.7
20240418074507 44 251 0.0 0.9 0.00 0.00 0.00 88 1013.5
20240418074007 44 221 0.0 0.0 0.00 0.00 0.00 88 1013.4
20240418073507 44 220 0.0 0.9 0.00 0.00 0.00 88 1013.5
20240418073006 44 208 0.0 0.9 0.00 0.00 0.00 88 1013.6
20240418072506 44 215 0.9 0.9 0.00 0.00 0.00 88 1013.8
20240418072004 44 217 0.9 0.9 0.00 0.00 0.00 87 1013.4
20240418071503 44 219 0.9 0.9 0.00 0.00 0.00 87 1013.4
20240418071001 44 222 0.9 1.7 0.00 0.00 0.00 87 1013.7
20240418070500 44 224 0.0 0.9 0.00 0.00 0.00 87 1013.7
20240418065958 44 212 0.9 0.9 0.00 0.00 0.00 87 1013.8
20240418065456 44 229 0.0 1.7 0.00 0.00 0.00 87 1013.5
20240418064956 44 186 1.7 1.7 0.00 0.00 0.00 87 1013.5
20240418064455 44 230 0.9 1.7 0.00 0.00 0.00 87 1013.6
20240418063953 43 220 0.9 1.7 0.00 0.00 0.00 87 1013.6
20240418063453 43 207 1.7 1.7 0.00 0.00 0.00 87 1013.6
20240418062952 43 215 0.0 0.9 0.00 0.00 0.00 88 1012.9
20240418062452 43 215 0.0 0.9 0.00 0.00 0.00 88 1012.8
20240418061951 43 219 0.0 0.9 0.00 0.00 0.00 88 1013.3
20240418061449 43 211 0.9 1.7 0.00 0.00 0.00 88 1013.2
20240418060948 43 211 0.9 0.9 0.00 0.00 0.00 88 1013.0
20240418060448 43 205 0.9 1.7 0.00 0.00 0.00 88 1012.9
20240418055946 43 218 0.9 0.9 0.00 0.00 0.00 88 1012.8
20240418055445 42 218 0.0 0.0 0.00 0.00 0.00 88 1013.3
20240418054945 43 219 0.0 0.0 0.00 0.00 0.00 88 1013.3
20240418054443 42 219 0.0 0.0 0.00 0.00 0.00 88 1013.0
20240418053941 42 219 0.0 0.0 0.00 0.00 0.00 88 1013.3
20240418053439 42 229 0.9 0.9 0.00 0.00 0.00 88 1013.7
20240418052937 42 230 0.9 0.9 0.00 0.00 0.00 88 1013.5
20240418052437 43 230 0.9 0.9 0.00 0.00 0.00 87 1012.8
20240418051936 43 230 0.9 0.9 0.00 0.00 0.00 86 1012.4
20240418051436 43 230 0.0 0.0 0.00 0.00 0.00 86 1012.0
20240418050937 43 230 0.0 0.9 0.00 0.00 0.00 86 1012.4
20240418050435 44 230 0.0 0.9 0.00 0.00 0.00 85 1012.5
20240418045933 44 230 0.0 0.0 0.00 0.01 0.01 86 1012.5
20240418045431 43 230 0.0 0.9 0.00 0.01 0.01 86 1012.5
20240418044930 43 230 0.0 0.0 0.00 0.01 0.01 86 1012.8
20240418044429 44 229 0.9 0.9 0.00 0.01 0.01 85 1012.6
20240418043927 44 229 0.9 0.9 0.00 0.01 0.01 84 1012.5
20240418043427 44 230 0.0 0.0 0.00 0.01 0.01 85 1012.9
20240418042927 44 230 0.0 0.9 0.00 0.01 0.01 84 1013.0
20240418042426 44 230 0.0 0.9 0.00 0.01 0.01 84 1013.0
20240418041924 45 230 0.0 0.9 0.00 0.01 0.01 83 1012.9
20240418041422 45 229 0.9 0.9 0.00 0.01 0.01 81 1013.1
20240418040922 45 231 0.9 0.9 0.00 0.01 0.01 81 1013.1
20240418040421 46 313 0.0 0.0 0.00 0.01 0.01 80 1012.8
20240418035919 46 313 0.0 0.0 0.00 0.01 0.01 80 1012.9
20240418035419 45 297 0.0 0.0 0.00 0.01 0.01 81 1012.9
20240418034918 45 262 0.9 0.9 0.00 0.01 0.01 81 1012.8
20240418034417 46 240 0.0 0.0 0.00 0.01 0.01 80 1012.9
20240418033915 46 239 0.9 0.9 0.00 0.01 0.01 79 1013.0
20240418033413 46 240 0.0 0.9 0.00 0.01 0.01 78 1012.8
20240418032913 47 240 0.9 0.9 0.00 0.01 0.01 77 1012.8
20240418032412 47 238 0.9 0.9 0.00 0.01 0.01 77 1012.8
20240418031911 48 248 0.9 1.7 0.00 0.01 0.01 76 1013.0
20240418031410 48 229 0.9 1.7 0.00 0.01 0.01 75 1013.2
20240418030911 48 214 1.7 2.6 0.00 0.01 0.01 74 1013.2
20240418030409 48 241 0.9 1.7 0.00 0.01 0.01 74 1013.1
20240418025909 48 253 0.9 1.7 0.00 0.01 0.01 73 1013.3
20240418025408 49 245 1.7 2.6 0.00 0.01 0.01 72 1013.4
20240418024907 49 252 1.7 1.7 0.00 0.01 0.01 71 1013.2
20240418024407 50 254 2.6 2.6 0.00 0.01 0.01 70 1013.2
20240418023907 50 236 1.7 1.7 0.00 0.01 0.01 69 1012.8
20240418023406 50 242 1.7 1.7 0.00 0.01 0.01 68 1012.6
20240418022905 51 266 0.9 1.7 0.00 0.01 0.01 67 1012.6
20240418022404 51 288 1.7 1.7 0.00 0.01 0.01 67 1012.5
20240418021903 51 282 2.6 5.2 0.00 0.01 0.01 66 1012.5
20240418021402 51 260 1.7 4.3 0.00 0.01 0.01 67 1012.3
20240418020901 51 246 2.6 4.3 0.00 0.01 0.01 67 1012.4
20240418020400 51 286 2.6 2.6 0.00 0.01 0.01 67 1012.3
20240418015859 51 303 1.7 5.2 0.00 0.01 0.01 67 1012.2
20240418015358 51 248 1.7 4.3 0.00 0.01 0.01 67 1012.1
20240418014858 52 293 2.6 6.1 0.00 0.01 0.01 66 1011.9
20240418014357 52 268 1.7 4.3 0.00 0.01 0.01 67 1011.7
20240418013856 52 285 1.7 4.3 0.00 0.01 0.01 67 1011.6
20240418013356 52 268 1.7 2.6 0.00 0.01 0.01 67 1011.5
20240418012854 52 265 0.9 4.3 0.00 0.01 0.01 66 1011.3
20240418012352 52 265 4.3 5.2 0.00 0.01 0.01 66 1011.1
20240418011850 52 259 2.6 2.6 0.00 0.01 0.01 65 1010.9
20240418011350 52 274 0.9 2.6 0.00 0.01 0.01 64 1011.0
20240418010848 52 301 2.6 5.2 0.00 0.01 0.01 63 1010.8
20240418010347 52 275 2.6 7.0 0.00 0.01 0.01 62 1010.8
20240418005847 52 305 2.6 5.2 0.00 0.01 0.01 62 1010.4
20240418005346 53 278 2.6 7.8 0.00 0.01 0.01 61 1010.3
20240418004845 53 277 6.1 7.8 0.00 0.01 0.01 61 1010.4
20240418004345 53 291 4.3 6.1 0.00 0.01 0.01 62 1010.1
20240418003844 53 279 4.3 7.0 0.00 0.01 0.01 63 1010.1
20240418003344 53 304 4.3 7.0 0.00 0.01 0.01 63 1010.2
20240418002843 53 240 3.5 6.1 0.00 0.01 0.01 61 1010.2
20240418002342 53 265 4.3 6.1 0.00 0.01 0.01 60 1010.1
20240418001841 53 321 6.1 7.0 0.00 0.01 0.01 61 1009.9
20240418001340 53 284 2.6 6.1 0.00 0.01 0.01 61 1009.9
20240418000838 54 273 3.5 5.2 0.00 0.01 0.01 60 1009.8
20240418000336 54 302 4.3 7.8 0.00 0.01 0.01 59 1009.8
20240417235834 54 270 1.7 6.1 0.00 0.01 0.01 59 1009.7
20240417235333 55 271 7.8 9.6 0.00 0.01 0.01 58 1009.7
20240417234831 55 259 4.3 5.2 0.00 0.01 0.01 58 1009.4
20240417234330 55 249 6.1 7.8 0.00 0.01 0.01 58 1009.2
20240417233829 55 277 4.3 7.0 0.00 0.01 0.01 58 1009.3
20240417233329 55 298 4.3 7.8 0.00 0.01 0.01 58 1009.2
20240417232827 55 260 1.7 5.2 0.00 0.01 0.01 59 1009.3
20240417232327 55 217 4.3 6.1 0.00 0.01 0.01 59 1009.1
20240417231827 55 312 2.6 5.2 0.00 0.01 0.01 60 1009.1
20240417231325 55 289 6.1 9.6 0.00 0.01 0.01 60 1009.0
20240417230825 54 290 4.3 6.1 0.00 0.01 0.01 62 1008.9
20240417230323 54 251 4.3 7.0 0.00 0.01 0.01 61 1008.9
20240417225822 54 304 3.5 7.0 0.00 0.01 0.01 61 1008.9
20240417225322 54 276 6.1 6.1 0.00 0.01 0.01 61 1008.7
20240417224820 55 301 4.3 7.8 0.00 0.01 0.01 61 1008.6
20240417224318 55 288 4.3 8.7 0.00 0.01 0.01 60 1008.6
20240417223817 55 295 4.3 7.8 0.00 0.01 0.01 60 1008.6
20240417223317 54 304 7.0 9.6 0.00 0.01 0.01 62 1008.4
20240417222817 54 302 6.1 9.6 0.00 0.01 0.01 61 1008.3
20240417222317 54 307 6.1 9.6 0.00 0.01 0.01 63 1008.4
20240417221816 53 280 7.0 8.7 0.00 0.01 0.01 64 1008.1
20240417221314 53 262 2.6 7.8 0.00 0.01 0.01 65 1008.2
20240417220814 53 289 6.1 8.7 0.00 0.01 0.01 64 1007.8
20240417220311 53 301 7.0 8.7 0.00 0.01 0.01 65 1007.6
20240417215810 53 281 6.1 7.0 0.00 0.01 0.01 66 1007.6
20240417215308 53 249 4.3 12.2 0.00 0.01 0.01 66 1007.5
20240417214806 53 281 4.3 6.1 0.00 0.01 0.01 66 1007.1
20240417214304 53 295 6.1 7.8 0.00 0.01 0.01 65 1007.3
20240417213803 53 282 7.0 11.3 0.00 0.01 0.01 65 1007.0
20240417213303 53 274 6.1 8.7 0.00 0.01 0.01 66 1006.9
20240417212802 53 345 6.1 7.0 0.00 0.01 0.01 66 1006.9
20240417212301 53 256 4.3 7.0 0.00 0.01 0.01 67 1006.8
20240417211800 53 244 3.5 5.2 0.00 0.01 0.01 68 1006.8
20240417211259 53 291 5.2 7.8 0.00 0.01 0.01 67 1006.6
20240417210757 53 259 2.6 5.2 0.00 0.01 0.01 68 1006.4
20240417210256 52 280 4.3 6.1 0.00 0.01 0.01 69 1006.4
20240417205755 52 274 2.6 6.1 0.00 0.01 0.01 70 1006.4
20240417205253 52 280 6.1 8.7 0.00 0.01 0.01 69 1006.3
20240417204751 52 269 4.3 6.1 0.00 0.01 0.01 70 1006.4
20240417204248 52 323 4.3 7.0 0.00 0.01 0.01 71 1006.3
20240417203746 51 280 6.1 8.7 0.00 0.01 0.01 71 1006.1
20240417203245 51 320 6.1 7.8 0.00 0.01 0.01 71 1006.2
20240417202743 51 245 2.6 7.0 0.00 0.01 0.01 71 1006.2
20240417202240 52 267 5.2 6.1 0.00 0.01 0.01 71 1006.1
20240417201739 52 299 4.3 7.0 0.00 0.01 0.01 71 1006.0
20240417201237 51 275 4.3 7.0 0.00 0.01 0.01 71 1005.9
20240417200736 52 271 2.6 6.1 0.00 0.01 0.01 71 1005.8
20240417200235 52 290 7.8 9.6 0.00 0.01 0.01 71 1006.0
20240417195734 51 318 7.8 11.3 0.00 0.01 0.01 72 1005.8
20240417195233 50 291 6.1 11.3 0.00 0.01 0.01 74 1005.8
20240417194733 50 244 6.1 7.0 0.00 0.01 0.01 76 1006.0
20240417194231 50 288 5.2 6.1 0.00 0.01 0.01 76 1005.6
20240417193731 49 303 5.2 7.8 0.00 0.01 0.01 77 1005.6
20240417193230 49 246 2.6 6.1 0.00 0.01 0.01 78 1005.5
20240417192730 49 264 4.3 6.1 0.00 0.01 0.01 77 1005.4
20240417192229 50 259 2.6 7.0 0.00 0.01 0.01 77 1005.3
20240417191728 50 258 6.1 7.8 0.00 0.01 0.01 75 1005.1
20240417191228 50 272 4.3 7.0 0.00 0.01 0.01 75 1004.9
20240417190726 50 264 4.3 8.7 0.00 0.01 0.01 74 1004.8
20240417190225 50 329 5.2 9.6 0.00 0.01 0.01 73 1004.8
20240417185724 51 250 7.0 9.6 0.00 0.01 0.01 73 1004.6
20240417185224 50 260 2.6 5.2 0.00 0.01 0.01 76 1004.6
20240417184722 49 268 4.3 7.8 0.00 0.01 0.01 76 1004.2
20240417184221 49 291 7.8 13.9 0.00 0.01 0.01 76 1004.3
20240417183721 49 339 1.7 6.1 0.00 0.01 0.01 78 1004.1
20240417183219 48 289 6.1 7.8 0.00 0.01 0.01 78 1004.3
20240417182718 48 307 4.3 11.3 0.00 0.01 0.01 79 1004.1
20240417182218 48 269 3.5 6.1 0.00 0.01 0.01 80 1004.1